Flag for U.S.A. Weather past 2 weeks in Portland, Oregon, U.S.A.

Now
52 °F

Mostly cloudy.


Feels Like: 49 °F
Forecast: 46 / 59 °F
Wind: 8 mph from Southwest

Location: Portland International Airport

Current Time: Mar 28, 2015 at 4:28:18 AM

Latest Report: Mar 28, 2015 at 3:53 AM


Visibility: 10 mi

Pressure: 30.24 "Hg

Humidity: 77%

Dew point: 45 °F

Location of PortlandLocation

Historic Weather in Portland — Graph

°F

Portland temperature yesterday

Maximum temperature yesterday: 71 °F (at 2:53 PM)
Minimum temperature yesterday: 46 °F (at 4:53 AM)
Average temperature yesterday: 57 °F

Past Weeks' High & Low Weather Summary

 TemperatureHumidityPressure
High73 °F (Mar 26, 4:53 PM)100% (Mar 14, 3:53 AM)30.34 "Hg (Mar 14, 3:53 AM)
Low38 °F (Mar 16, 5:53 AM)37% (Mar 26, 4:53 PM)29.67 "Hg (Mar 15, 12:53 PM)
Average53 °F81%30.10 "Hg
* Reported Mar 13 2:53 AM — Mar 28 2:53 AM, Portland, Weather by CustomWeather, © 2015

Note: Actual official high and low records may vary slightly from our data, if they occured in-between our weather recording intervals... More about our weather records

Advertising

Portland weather history for previous 24 hours

 ConditionsComfort  
Time TempWeatherWind HumidityBarometerVisibility
2:53 AM
Sat, Mar 28
52 °FMostly cloudy.8 mph77%30.23 "Hg10 mi
1:53 AM52 °FPassing clouds.12 mph80%30.20 "Hg10 mi
12:53 AM53 °FMostly cloudy.13 mph80%30.19 "Hg10 mi
11:53 PM
Fri, Mar 27
54 °FOvercast.13 mph72%30.16 "Hg10 mi
10:53 PM55 °FOvercast.8 mph72%30.16 "Hg10 mi
9:53 PM57 °FMostly cloudy.15 mph67%30.11 "Hg10 mi
8:53 PM57 °FOvercast.13 mph83%30.07 "Hg10 mi
7:53 PM61 °FMostly cloudy.14 mph62%30.05 "Hg10 mi
6:53 PM62 °FBroken clouds.9 mph60%30.03 "Hg10 mi
5:53 PM66 °FPartly sunny.15 mph61%30.00 "Hg10 mi
4:53 PM69 °FBroken clouds.14 mph53%30.00 "Hg10 mi
3:53 PM69 °FPartly sunny.17 mph57%30.00 "Hg10 mi
2:53 PM71 °FPartly sunny.10 mph55%30.01 "Hg10 mi
1:53 PM69 °FScattered clouds.12 mph61%30.03 "Hg10 mi
12:53 PM67 °FPartly sunny.8 mph66%30.05 "Hg10 mi
11:53 AM63 °FBroken clouds.6 mph70%30.06 "Hg10 mi
10:53 AM58 °FPartly sunny.3 mph81%30.08 "Hg10 mi
9:53 AM54 °FPartly sunny.No wind90%30.08 "Hg10 mi
8:53 AM50 °FLight fog.No wind100%30.07 "Hg7 mi
7:53 AM49 °FPassing clouds.No wind97%30.06 "Hg7 mi
6:53 AM48 °FFog.No wind93%30.05 "Hg7 mi
5:53 AM48 °FFog.3 mph100%30.05 "Hg10 mi
4:53 AM46 °FFog.No wind96%30.05 "Hg10 mi
Weather by CustomWeather, © 2015

See weather overviewHow to use our weather pages